Location: Borotín
(49.5055°N, 14.6142°E)
Time: 06:18:26
(UTC+00:00)

NPP - Pass Details

Date: 27 May 2022
Orbit: 826 x 828 km, 98.7° (Epoch: 28 June)

Event Time Altitude Azimuth Distance (km) Brightness Sun altitude
Rises 01:29:10 0° 11° (NNE) 3,380 8.2 -11.7°
Reaches altitude 10° 01:31:34 10° 7° (N) 2,442 7.1 -11.5°
Maximum altitude 01:36:50 55° 291° (WNW) 990 4.0 -11.0°
Enters shadow 01:41:23 14° 217° (SW) 2,167 5.1 -10.5°
